Weather History for Wolf Point, MT

Change the Weather History Date:

Thursday, November 22, 2012

  Actual Average Record
Temperature  
Mean Temperature 22 °F -  
Max Temperature 34 °F 37 °F 55 °F (2005)
Min Temperature 9 °F 12 °F -15 °F (2003)
Degree Days  
Heating Degree Days 43    
Cooling Degree Days 0    
Moisture  
Dew Point 15 °F    
Average Humidity 75    
Maximum Humidity 87    
Minimum Humidity 63    
Precipitation  
Precipitation T in 0.01 in 0.02 in (2010)
Month to date precipitation 0.27 0.31  
Year to date precipitation 10.14 11.80  
Sea Level Pressure  
Sea Level Pressure 30.29 in    
Wind  
Wind Speed 11 mph (NW)    
Max Wind Speed 24 mph    
Max Gust Speed 32 mph    
Visibility 10 miles    
Events Snow    
T = Trace of Precipitation, MM = Missing Value Source: NWS Daily Summary

Daily Weather History Graph

Daily Weather History Graph

Search for Another Location

Airport:

Trip Planner

Search our weather history database for the weather conditions in past years. The results will help you decide how hot, cold, wet, or windy it might be!

Date:

Astronomy

Nov. 22, 2012 Rise Set
Actual Time 7:20 AM MST 4:16 PM MST
Civil Twilight 6:45 AM MST 4:51 PM MST
Nautical Twilight 6:06 AM MST 5:29 PM MST
Astronomical Twilight 5:29 AM MST 6:06 PM MST
Moon 1:24 PM MST (11/22) 1:19 AM MST (11/22)
Length of Visible Light 10h 06m
Length of Day
8h 56m
Waxing Gibbous, 72% of the Moon is Illuminated
Nov 22
Waxing Gibbous
Nov 28
Full
Dec 6
Last Quarter
Dec 13
New
Dec 19
First Quarter

Hourly Weather History & Observations

Time (MST) Temp. Windchill Dew Point Humidity Pressure Visibility Wind Dir Wind Speed Gust Speed Precip Events Conditions
12:14 AM 33.8 °F 28.6 °F 30.2 °F 87% 29.85 in 10.0 mi NNW 5.8 mph - N/A   Overcast
12:53 AM 34.0 °F 26.0 °F 30.0 °F 85% 29.94 in 10.0 mi NW 10.4 mph - N/A   Overcast
1:10 AM 33.8 °F 27.0 °F 30.2 °F 87% 29.87 in 10.0 mi NW 8.1 mph - N/A   Overcast
1:24 AM 33.8 °F 27.7 °F 30.2 °F 87% 29.87 in 10.0 mi WNW 6.9 mph - N/A   Overcast
1:53 AM 33.1 °F 24.4 °F 28.0 °F 82% 29.96 in 10.0 mi WNW 11.5 mph - N/A   Overcast
2:53 AM 30.0 °F 22.4 °F 25.0 °F 82% 30.01 in 10.0 mi West 8.1 mph - N/A   Mostly Cloudy
3:53 AM 28.9 °F 16.9 °F 23.0 °F 78% 30.03 in 10.0 mi NW 17.3 mph 23.0 mph N/A   Overcast
4:53 AM 28.9 °F 18.6 °F 21.9 °F 75% 30.07 in 10.0 mi NW 12.7 mph 19.6 mph N/A   Overcast
5:24 AM 26.6 °F 18.2 °F 21.2 °F 80% 30.01 in 10.0 mi WNW 8.1 mph - N/A   Partly Cloudy
5:42 AM 26.6 °F 16.8 °F 21.2 °F 80% 30.02 in 10.0 mi NW 10.4 mph - N/A   Mostly Cloudy
5:53 AM 27.0 °F 16.7 °F 21.0 °F 78% 30.11 in 10.0 mi NW 11.5 mph - N/A   Mostly Cloudy
6:38 AM 24.8 °F 14.6 °F 19.4 °F 80% 30.07 in 10.0 mi NNW 10.4 mph - N/A   Overcast
6:53 AM 25.0 °F 14.8 °F 18.0 °F 75% 30.16 in 10.0 mi NW 10.4 mph - N/A   Overcast
7:03 AM 24.8 °F 15.3 °F 17.6 °F 74% 30.09 in 10.0 mi NW 9.2 mph - N/A   Overcast
7:53 AM 24.1 °F 10.6 °F 17.1 °F 75% 30.21 in 10.0 mi NW 17.3 mph 21.9 mph N/A   Overcast
8:43 AM 23.0 °F 8.7 °F 14.0 °F 68% 30.17 in 10.0 mi NNW 18.4 mph 24.2 mph N/A   Overcast
8:53 AM 23.0 °F 10.6 °F 14.0 °F 68% 30.26 in 10.0 mi NNW 13.8 mph - N/A   Overcast
9:53 AM 21.0 °F 4.6 °F 12.9 °F 71% 30.31 in 10.0 mi NW 23.0 mph 27.6 mph N/A   Overcast
10:53 AM 21.9 °F 5.5 °F 14.0 °F 72% 30.34 in 5.0 mi NW 24.2 mph 28.8 mph 0.00 in Snow Light Snow
11:53 AM 19.9 °F 3.5 °F 10.9 °F 68% 30.38 in 10.0 mi WNW 21.9 mph 26.5 mph 0.00 in   Overcast
12:53 PM 19.9 °F 3.5 °F 10.0 °F 65% 30.41 in 10.0 mi NW 21.9 mph 29.9 mph N/A   Overcast
1:45 PM 19.4 °F 3.2 °F 10.4 °F 68% 30.36 in 8.0 mi NW 20.7 mph 28.8 mph 0.00 in Snow Light Snow
1:53 PM 19.0 °F 1.6 °F 9.0 °F 65% 30.46 in 9.0 mi NW 24.2 mph 32.2 mph 0.00 in   Overcast
2:26 PM 19.4 °F 3.2 °F 8.6 °F 63% 30.39 in 10.0 mi NW 20.7 mph 28.8 mph 0.00 in   Overcast
2:53 PM 19.0 °F 2.4 °F 9.0 °F 65% 30.50 in 10.0 mi NW 21.9 mph 29.9 mph 0.00 in   Mostly Cloudy
3:08 PM 19.4 °F 4.1 °F 8.6 °F 63% 30.41 in 10.0 mi NW 18.4 mph 27.6 mph N/A   Scattered Clouds
3:53 PM 18.0 °F 3.1 °F 8.1 °F 65% 30.55 in 10.0 mi NW 16.1 mph - N/A   Clear
4:53 PM 16.0 °F 2.9 °F 8.1 °F 71% 30.58 in 10.0 mi WNW 11.5 mph - N/A   Clear
5:53 PM 15.1 °F 5.2 °F 8.1 °F 74% 30.60 in 10.0 mi WNW 6.9 mph - N/A   Partly Cloudy
6:53 PM 15.1 °F 9.4 °F 8.1 °F 74% 30.64 in 10.0 mi West 3.5 mph - N/A   Clear
7:53 PM 12.9 °F - 7.0 °F 77% 30.66 in 10.0 mi Calm Calm - N/A   Clear
8:53 PM 12.0 °F 4.1 °F 6.1 °F 77% 30.66 in 10.0 mi West 4.6 mph - N/A   Clear
9:53 PM 10.9 °F 1.4 °F 6.1 °F 81% 30.68 in 10.0 mi West 5.8 mph - N/A   Clear
10:53 PM 10.0 °F 3.6 °F 6.1 °F 84% 30.68 in 10.0 mi West 3.5 mph - N/A   Clear
11:53 PM 10.0 °F - 5.0 °F 80% 30.68 in 10.0 mi Calm Calm - N/A   Clear